Time,TemperatureF,DewpointF,PressureIn,WindDirection,WindDirectionDegrees,WindSpeedMPH,WindSpeedGustMPH,Humidity,HourlyPrecipIn,Conditions,Clouds,dailyrainin,SoftwareType,DateUTC
2013-01-30 00:02:00,41.6,37.4,29.53,NW,324,5.0,10.0,85,0.00,,,0.00,Wunderground v.1.15,2013-01-30 06:02:00,
2013-01-30 00:09:00,41.6,37.1,29.54,NW,317,5.0,12.0,84,0.00,,,0.00,Wunderground v.1.15,2013-01-30 06:09:00,
2013-01-30 00:14:00,41.5,37.0,29.55,NW,309,5.0,8.0,84,0.00,,,0.00,Wunderground v.1.15,2013-01-30 06:14:00,
2013-01-30 00:20:00,41.5,37.0,29.56,NW,315,4.0,4.0,84,0.00,,,0.00,Wunderground v.1.15,2013-01-30 06:20:00,
2013-01-30 00:26:00,41.3,36.5,29.56,NW,304,3.0,6.0,83,0.00,,,0.00,Wunderground v.1.15,2013-01-30 06:26:00,
2013-01-30 00:32:00,41.2,36.4,29.56,WNW,294,4.0,5.0,83,0.00,,,0.00,Wunderground v.1.15,2013-01-30 06:32:00,
2013-01-30 00:39:00,41.1,36.3,29.56,NW,311,4.0,5.0,83,0.00,,,0.00,Wunderground v.1.15,2013-01-30 06:39:00,
2013-01-30 00:44:00,41.0,36.2,29.56,NW,320,5.0,6.0,83,0.00,,,0.00,Wunderground v.1.15,2013-01-30 06:44:00,
2013-01-30 00:54:00,40.9,35.8,29.57,North,355,6.0,6.0,82,0.00,,,0.00,Wunderground v.1.15,2013-01-30 06:54:00,
2013-01-30 01:00:00,40.8,35.4,29.57,NW,311,7.0,11.0,81,0.00,,,0.00,Wunderground v.1.15,2013-01-30 07:00:00,
2013-01-30 01:06:00,40.8,35.4,29.58,NW,313,5.0,11.0,81,0.00,,,0.00,Wunderground v.1.15,2013-01-30 07:06:00,
2013-01-30 01:12:00,40.7,35.6,29.57,NW,307,5.0,5.0,82,0.00,,,0.01,Wunderground v.1.15,2013-01-30 07:12:00,
2013-01-30 01:18:00,40.4,35.3,29.57,NNW,342,5.0,5.0,82,0.00,,,0.01,Wunderground v.1.15,2013-01-30 07:18:00,
2013-01-30 01:24:00,40.2,35.4,29.57,NW,317,6.0,7.0,83,0.05,,,0.02,Wunderground v.1.15,2013-01-30 07:24:00,
2013-01-30 01:30:00,40.2,35.4,29.57,NW,319,5.0,5.0,83,0.05,,,0.02,Wunderground v.1.15,2013-01-30 07:30:00,
2013-01-30 01:36:00,40.2,35.4,29.57,WNW,300,5.0,7.0,83,0.05,,,0.02,Wunderground v.1.15,2013-01-30 07:36:00,
2013-01-30 01:42:00,40.2,35.4,29.55,NNW,343,4.0,9.0,83,0.00,,,0.02,Wunderground v.1.15,2013-01-30 07:42:00,
2013-01-30 01:49:00,40.1,35.4,29.56,WNW,301,5.0,9.0,83,0.00,,,0.02,Wunderground v.1.15,2013-01-30 07:49:00,
2013-01-30 01:54:00,40.0,35.3,29.56,WNW,298,5.0,7.0,83,0.00,,,0.02,Wunderground v.1.15,2013-01-30 07:54:00,
2013-01-30 02:00:00,39.9,35.5,29.56,NNW,344,5.0,5.0,84,0.00,,,0.02,Wunderground v.1.15,2013-01-30 08:00:00,
2013-01-30 02:06:00,39.8,35.4,29.56,NW,313,4.0,5.0,84,0.00,,,0.02,Wunderground v.1.15,2013-01-30 08:06:00,
2013-01-30 02:12:00,39.7,35.3,29.56,NW,304,4.0,4.0,84,0.00,,,0.02,Wunderground v.1.15,2013-01-30 08:12:00,
2013-01-30 02:18:00,39.8,35.4,29.57,NW,313,4.0,4.0,84,0.00,,,0.02,Wunderground v.1.15,2013-01-30 08:18:00,
2013-01-30 02:30:00,40.0,35.6,29.57,NW,317,4.0,4.0,84,0.00,,,0.02,Wunderground v.1.15,2013-01-30 08:30:00,
2013-01-30 02:36:00,40.0,35.3,29.57,NW,310,4.0,6.0,83,0.00,,,0.02,Wunderground v.1.15,2013-01-30 08:36:00,
2013-01-30 02:42:00,40.1,35.4,29.58,West,277,4.0,4.0,83,0.00,,,0.02,Wunderground v.1.15,2013-01-30 08:42:00,
2013-01-30 02:48:00,40.1,35.4,29.58,WNW,302,3.0,4.0,83,0.00,,,0.02,Wunderground v.1.15,2013-01-30 08:48:00,
2013-01-30 02:54:00,40.0,35.3,29.58,NW,304,4.0,8.0,83,0.00,,,0.02,Wunderground v.1.15,2013-01-30 08:54:00,
2013-01-30 03:00:00,40.0,34.9,29.58,WNW,296,7.0,13.0,82,0.00,,,0.02,Wunderground v.1.15,2013-01-30 09:00:00,
2013-01-30 03:06:00,39.8,34.8,29.58,NW,306,7.0,13.0,82,0.00,,,0.02,Wunderground v.1.15,2013-01-30 09:06:00,
2013-01-30 03:12:00,39.8,34.8,29.58,NNW,333,6.0,10.0,82,0.00,,,0.02,Wunderground v.1.15,2013-01-30 09:12:00,
2013-01-30 03:19:00,39.8,34.8,29.59,NW,319,6.0,10.0,82,0.00,,,0.02,Wunderground v.1.15,2013-01-30 09:19:00,
2013-01-30 03:24:00,39.7,34.7,29.59,West,272,6.0,6.0,82,0.00,,,0.02,Wunderground v.1.15,2013-01-30 09:24:00,
2013-01-30 03:30:00,39.7,34.7,29.59,NW,309,5.0,5.0,82,0.00,,,0.02,Wunderground v.1.15,2013-01-30 09:30:00,
2013-01-30 03:36:00,39.6,34.6,29.59,NW,318,5.0,12.0,82,0.00,,,0.02,Wunderground v.1.15,2013-01-30 09:36:00,
2013-01-30 03:42:00,39.6,34.6,29.59,NW,312,7.0,7.0,82,0.00,,,0.02,Wunderground v.1.15,2013-01-30 09:42:00,
2013-01-30 03:49:00,39.4,33.7,29.59,NW,322,7.0,8.0,80,0.00,,,0.02,Wunderground v.1.15,2013-01-30 09:49:00,
2013-01-30 03:54:00,39.3,33.6,29.59,NW,325,7.0,10.0,80,0.00,,,0.02,Wunderground v.1.15,2013-01-30 09:54:00,
2013-01-30 04:00:00,39.1,33.1,29.59,WNW,300,7.0,9.0,79,0.00,,,0.02,Wunderground v.1.15,2013-01-30 10:00:00,
2013-01-30 04:06:00,38.7,32.7,29.59,NW,321,8.0,11.0,79,0.00,,,0.02,Wunderground v.1.15,2013-01-30 10:06:00,
2013-01-30 04:12:00,38.4,32.1,29.59,NNW,336,8.0,11.0,78,0.00,,,0.02,Wunderground v.1.15,2013-01-30 10:12:00,
2013-01-30 04:18:00,38.2,32.3,29.60,NW,322,9.0,12.0,79,0.00,,,0.02,Wunderground v.1.15,2013-01-30 10:18:00,
2013-01-30 04:24:00,38.1,31.8,29.60,NNW,338,9.0,15.0,78,0.00,,,0.02,Wunderground v.1.15,2013-01-30 10:24:00,
2013-01-30 04:30:00,38.1,31.8,29.60,North,355,9.0,9.0,78,0.00,,,0.02,Wunderground v.1.15,2013-01-30 10:30:00,
2013-01-30 04:36:00,38.2,32.3,29.60,NNW,344,7.0,11.0,79,0.00,,,0.02,Wunderground v.1.15,2013-01-30 10:36:00,
2013-01-30 04:42:00,38.1,32.2,29.61,NW,325,6.0,10.0,79,0.00,,,0.02,Wunderground v.1.15,2013-01-30 10:42:00,
2013-01-30 04:48:00,38.1,32.5,29.61,NW,323,5.0,10.0,80,0.00,,,0.02,Wunderground v.1.15,2013-01-30 10:48:00,
2013-01-30 04:54:00,38.2,32.6,29.61,NNW,328,4.0,5.0,80,0.00,,,0.02,Wunderground v.1.15,2013-01-30 10:54:00,
2013-01-30 05:00:00,38.1,32.8,29.62,WNW,303,5.0,11.0,81,0.00,,,0.02,Wunderground v.1.15,2013-01-30 11:00:00,
2013-01-30 05:10:00,38.1,32.5,29.62,NW,324,7.0,7.0,80,0.00,,,0.02,Wunderground v.1.15,2013-01-30 11:10:00,
2013-01-30 05:16:00,38.1,32.5,29.63,WNW,288,7.0,10.0,80,0.00,,,0.02,Wunderground v.1.15,2013-01-30 11:16:00,
2013-01-30 05:22:00,38.0,32.1,29.64,NW,317,7.0,12.0,79,0.00,,,0.02,Wunderground v.1.15,2013-01-30 11:22:00,
2013-01-30 05:28:00,37.9,31.7,29.64,NW,317,7.0,12.0,78,0.00,,,0.02,Wunderground v.1.15,2013-01-30 11:28:00,
2013-01-30 05:34:00,37.8,31.6,29.64,NW,313,7.0,15.0,78,0.00,,,0.02,Wunderground v.1.15,2013-01-30 11:34:00,
2013-01-30 05:40:00,37.7,31.5,29.64,NNW,327,6.0,12.0,78,0.00,,,0.02,Wunderground v.1.15,2013-01-30 11:40:00,
2013-01-30 05:46:00,37.7,31.1,29.65,NNW,339,8.0,15.0,77,0.00,,,0.02,Wunderground v.1.15,2013-01-30 11:46:00,
2013-01-30 05:52:00,37.6,31.0,29.66,NNW,334,9.0,11.0,77,0.00,,,0.02,Wunderground v.1.15,2013-01-30 11:52:00,
2013-01-30 05:58:00,37.5,30.6,29.66,NW,322,9.0,15.0,76,0.00,,,0.02,Wunderground v.1.15,2013-01-30 11:58:00,
2013-01-30 06:04:00,37.5,30.3,29.66,NW,311,10.0,12.0,75,0.00,,,0.02,Wunderground v.1.15,2013-01-30 12:04:00,
2013-01-30 06:10:00,37.5,30.3,29.67,NW,325,9.0,9.0,75,0.00,,,0.02,Wunderground v.1.15,2013-01-30 12:10:00,
2013-01-30 06:16:00,37.4,30.2,29.68,NW,315,9.0,14.0,75,0.00,,,0.02,Wunderground v.1.15,2013-01-30 12:16:00,
2013-01-30 06:22:00,37.3,29.8,29.68,NNW,338,10.0,17.0,74,0.00,,,0.02,Wunderground v.1.15,2013-01-30 12:22:00,
2013-01-30 06:29:00,37.3,29.8,29.69,WNW,290,11.0,17.0,74,0.00,,,0.02,Wunderground v.1.15,2013-01-30 12:29:00,
2013-01-30 06:34:00,37.2,29.3,29.69,NW,322,11.0,15.0,73,0.00,,,0.02,Wunderground v.1.15,2013-01-30 12:34:00,
2013-01-30 06:40:00,37.3,29.4,29.70,NNW,331,10.0,14.0,73,0.00,,,0.02,Wunderground v.1.15,2013-01-30 12:40:00,
2013-01-30 06:46:00,37.3,29.1,29.70,NW,324,8.0,14.0,72,0.00,,,0.02,Wunderground v.1.15,2013-01-30 12:46:00,
2013-01-30 06:52:00,37.3,29.1,29.70,NNW,338,9.0,9.0,72,0.00,,,0.02,Wunderground v.1.15,2013-01-30 12:52:00,
2013-01-30 06:59:00,37.3,29.4,29.71,NNW,334,10.0,13.0,73,0.00,,,0.02,Wunderground v.1.15,2013-01-30 12:59:00,
2013-01-30 07:04:00,37.3,29.4,29.72,NNW,334,9.0,13.0,73,0.00,,,0.02,Wunderground v.1.15,2013-01-30 13:04:00,
2013-01-30 07:10:00,37.3,29.8,29.72,NW,318,7.0,7.0,74,0.00,,,0.02,Wunderground v.1.15,2013-01-30 13:10:00,
2013-01-30 07:16:00,37.3,29.8,29.72,NW,325,6.0,17.0,74,0.00,,,0.02,Wunderground v.1.15,2013-01-30 13:16:00,
2013-01-30 07:22:00,37.3,29.8,29.72,WNW,300,9.0,9.0,74,0.00,,,0.02,Wunderground v.1.15,2013-01-30 13:22:00,
2013-01-30 07:28:00,37.3,29.8,29.73,NW,314,8.0,13.0,74,0.00,,,0.02,Wunderground v.1.15,2013-01-30 13:28:00,
2013-01-30 07:34:00,37.3,29.8,29.73,NNW,346,9.0,17.0,74,0.00,,,0.02,Wunderground v.1.15,2013-01-30 13:34:00,
2013-01-30 07:40:00,37.3,29.4,29.74,NNW,348,11.0,13.0,73,0.00,,,0.02,Wunderground v.1.15,2013-01-30 13:40:00,
2013-01-30 07:46:00,37.3,28.8,29.75,NW,320,11.0,13.0,71,0.00,,,0.02,Wunderground v.1.15,2013-01-30 13:46:00,
2013-01-30 07:52:00,37.3,28.8,29.75,North,351,9.0,10.0,71,0.00,,,0.02,Wunderground v.1.15,2013-01-30 13:52:00,
2013-01-30 07:58:00,37.3,28.4,29.75,North,355,9.0,10.0,70,0.00,,,0.02,Wunderground v.1.15,2013-01-30 13:58:00,
2013-01-30 08:04:00,37.2,28.7,29.76,NNW,348,10.0,14.0,71,0.00,,,0.02,Wunderground v.1.15,2013-01-30 14:04:00,
2013-01-30 08:10:00,37.2,28.7,29.76,NNW,333,10.0,10.0,71,0.00,,,0.02,Wunderground v.1.15,2013-01-30 14:10:00,
2013-01-30 08:16:00,37.2,29.0,29.77,NNE,14,10.0,10.0,72,0.00,,,0.02,Wunderground v.1.15,2013-01-30 14:16:00,
2013-01-30 08:22:00,37.3,29.1,29.77,NNE,25,7.0,8.0,72,0.00,,,0.02,Wunderground v.1.15,2013-01-30 14:22:00,
2013-01-30 08:28:00,37.1,28.9,29.78,NNE,25,9.0,12.0,72,0.00,,,0.02,Wunderground v.1.15,2013-01-30 14:28:00,
2013-01-30 08:34:00,37.0,29.1,29.78,NW,323,9.0,12.0,73,0.00,,,0.02,Wunderground v.1.15,2013-01-30 14:34:00,
2013-01-30 08:40:00,36.9,29.4,29.79,NW,317,7.0,7.0,74,0.00,,,0.02,Wunderground v.1.15,2013-01-30 14:40:00,
2013-01-30 08:46:00,36.8,29.3,29.79,North,360,7.0,9.0,74,0.00,,,0.02,Wunderground v.1.15,2013-01-30 14:46:00,
2013-01-30 08:52:00,36.6,28.4,29.80,North,355,8.0,12.0,72,0.00,,,0.02,Wunderground v.1.15,2013-01-30 14:52:00,
2013-01-30 08:58:00,36.3,27.8,29.80,NNE,23,11.0,14.0,71,0.00,,,0.02,Wunderground v.1.15,2013-01-30 14:58:00,
2013-01-30 09:04:00,36.2,27.7,29.81,North,355,13.0,13.0,71,0.00,,,0.02,Wunderground v.1.15,2013-01-30 15:04:00,
2013-01-30 09:10:00,36.2,27.7,29.81,North,355,11.0,11.0,71,0.00,,,0.02,Wunderground v.1.15,2013-01-30 15:10:00,
2013-01-30 09:16:00,36.3,27.8,29.81,ENE,60,10.0,11.0,71,0.00,,,0.02,Wunderground v.1.15,2013-01-30 15:16:00,
2013-01-30 09:22:00,36.4,28.2,29.81,NNE,13,10.0,10.0,72,0.00,,,0.02,Wunderground v.1.15,2013-01-30 15:22:00,
2013-01-30 09:29:00,36.6,29.7,29.81,NNE,22,6.0,10.0,76,0.00,,,0.02,Wunderground v.1.15,2013-01-30 15:29:00,
2013-01-30 09:34:00,36.5,28.3,29.82,NNW,331,8.0,12.0,72,0.00,,,0.02,Wunderground v.1.15,2013-01-30 15:34:00,
2013-01-30 09:40:00,36.5,28.7,29.83,NNW,336,8.0,8.0,73,0.00,,,0.02,Wunderground v.1.15,2013-01-30 15:40:00,
2013-01-30 09:46:00,36.6,28.8,29.83,NNW,344,5.0,8.0,73,0.00,,,0.02,Wunderground v.1.15,2013-01-30 15:46:00,
2013-01-30 09:52:00,36.5,27.3,29.84,NNW,331,8.0,15.0,69,0.00,,,0.02,Wunderground v.1.15,2013-01-30 15:52:00,
2013-01-30 09:58:00,36.4,26.1,29.84,North,355,12.0,20.0,66,0.00,,,0.02,Wunderground v.1.15,2013-01-30 15:58:00,
2013-01-30 10:04:00,36.4,26.8,29.85,NW,311,12.0,16.0,68,0.00,,,0.02,Wunderground v.1.15,2013-01-30 16:04:00,
2013-01-30 10:10:00,36.4,27.2,29.85,NW,319,10.0,14.0,69,0.00,,,0.02,Wunderground v.1.15,2013-01-30 16:10:00,
2013-01-30 10:16:00,36.2,27.4,29.85,North,355,10.0,14.0,70,0.00,,,0.02,Wunderground v.1.15,2013-01-30 16:16:00,
2013-01-30 10:22:00,36.1,27.3,29.85,NNW,348,9.0,16.0,70,0.00,,,0.02,Wunderground v.1.15,2013-01-30 16:22:00,
2013-01-30 10:28:00,36.0,27.2,29.86,NNW,329,11.0,16.0,70,0.00,,,0.02,Wunderground v.1.15,2013-01-30 16:28:00,
2013-01-30 10:34:00,36.1,27.3,29.86,NNW,334,11.0,11.0,70,0.00,,,0.02,Wunderground v.1.15,2013-01-30 16:34:00,
2013-01-30 10:40:00,36.6,27.7,29.87,North,11,9.0,9.0,70,0.00,,,0.02,Wunderground v.1.15,2013-01-30 16:40:00,
2013-01-30 10:46:00,37.3,28.1,29.87,NNE,24,8.0,12.0,69,0.00,,,0.02,Wunderground v.1.15,2013-01-30 16:46:00,
2013-01-30 10:52:00,37.0,27.8,29.87,NNW,339,9.0,14.0,69,0.00,,,0.02,Wunderground v.1.15,2013-01-30 16:52:00,
2013-01-30 10:58:00,37.0,28.1,29.88,NW,322,9.0,14.0,70,0.00,,,0.02,Wunderground v.1.15,2013-01-30 16:58:00,
2013-01-30 11:04:00,37.2,28.3,29.88,NW,304,7.0,13.0,70,0.00,,,0.02,Wunderground v.1.15,2013-01-30 17:04:00,
2013-01-30 11:10:00,37.1,28.2,29.88,NNW,342,7.0,7.0,70,0.00,,,0.02,Wunderground v.1.15,2013-01-30 17:10:00,
2013-01-30 11:16:00,37.1,28.6,29.88,NNW,342,8.0,9.0,71,0.00,,,0.02,Wunderground v.1.15,2013-01-30 17:16:00,
2013-01-30 11:22:00,37.5,28.9,29.89,NNW,338,7.0,17.0,71,0.00,,,0.02,Wunderground v.1.15,2013-01-30 17:22:00,
2013-01-30 11:29:00,37.0,27.8,29.89,NNW,329,9.0,17.0,69,0.00,,,0.02,Wunderground v.1.15,2013-01-30 17:29:00,
2013-01-30 11:34:00,37.1,26.4,29.89,WNW,299,10.0,10.0,65,0.00,,,0.02,Wunderground v.1.15,2013-01-30 17:34:00,
2013-01-30 11:40:00,36.8,26.1,29.89,NNW,344,11.0,11.0,65,0.00,,,0.02,Wunderground v.1.15,2013-01-30 17:40:00,
2013-01-30 11:46:00,36.8,26.5,29.89,North,349,10.0,14.0,66,0.00,,,0.02,Wunderground v.1.15,2013-01-30 17:46:00,
2013-01-30 11:52:00,36.8,26.5,29.90,NW,321,10.0,16.0,66,0.00,,,0.02,Wunderground v.1.15,2013-01-30 17:52:00,
2013-01-30 11:58:00,36.4,26.1,29.90,NNW,331,11.0,16.0,66,0.00,,,0.02,Wunderground v.1.15,2013-01-30 17:58:00,
2013-01-30 12:04:00,36.2,26.3,29.90,NNW,333,10.0,15.0,67,0.00,,,0.02,Wunderground v.1.15,2013-01-30 18:04:00,
2013-01-30 12:10:00,36.2,26.6,29.91,NNW,335,10.0,10.0,68,0.00,,,0.02,Wunderground v.1.15,2013-01-30 18:10:00,
2013-01-30 12:16:00,36.1,26.6,29.91,NW,311,9.0,14.0,68,0.00,,,0.02,Wunderground v.1.15,2013-01-30 18:16:00,
2013-01-30 12:22:00,36.5,26.6,29.91,North,9,8.0,14.0,67,0.00,,,0.02,Wunderground v.1.15,2013-01-30 18:22:00,
2013-01-30 12:29:00,36.4,26.1,29.91,NW,315,9.0,14.0,66,0.00,,,0.02,Wunderground v.1.15,2013-01-30 18:29:00,
2013-01-30 12:34:00,36.5,26.2,29.91,NNW,336,8.0,12.0,66,0.00,,,0.02,Wunderground v.1.15,2013-01-30 18:34:00,
2013-01-30 12:40:00,36.5,26.2,29.90,NNW,344,8.0,8.0,66,0.00,,,0.02,Wunderground v.1.15,2013-01-30 18:40:00,
2013-01-30 12:46:00,36.8,26.5,29.90,NNW,334,9.0,12.0,66,0.00,,,0.02,Wunderground v.1.15,2013-01-30 18:46:00,
2013-01-30 12:52:00,37.8,27.1,29.90,NNW,338,8.0,9.0,65,0.00,,,0.02,Wunderground v.1.15,2013-01-30 18:52:00,
2013-01-30 12:58:00,38.3,25.6,29.91,NW,317,9.0,13.0,60,0.00,,,0.02,Wunderground v.1.15,2013-01-30 18:58:00,
2013-01-30 13:04:00,37.8,25.1,29.90,NW,325,10.0,11.0,60,0.00,,,0.02,Wunderground v.1.15,2013-01-30 19:04:00,
2013-01-30 13:10:00,37.7,25.1,29.91,NNW,331,10.0,15.0,60,0.00,,,0.02,Wunderground v.1.15,2013-01-30 19:10:00,
2013-01-30 13:16:00,38.2,25.1,29.91,NNW,333,10.0,15.0,59,0.00,,,0.02,Wunderground v.1.15,2013-01-30 19:16:00,
2013-01-30 13:22:00,38.9,25.8,29.90,NNW,345,8.0,11.0,59,0.00,,,0.02,Wunderground v.1.15,2013-01-30 19:22:00,
2013-01-30 13:28:00,38.6,25.9,29.90,NNW,342,8.0,11.0,60,0.00,,,0.02,Wunderground v.1.15,2013-01-30 19:28:00,
2013-01-30 13:34:00,38.8,24.9,29.91,NW,323,8.0,9.0,57,0.00,,,0.02,Wunderground v.1.15,2013-01-30 19:34:00,
2013-01-30 13:40:00,38.5,24.6,29.91,WNW,288,10.0,16.0,57,0.00,,,0.02,Wunderground v.1.15,2013-01-30 19:40:00,
2013-01-30 13:46:00,38.2,23.9,29.91,NW,319,11.0,18.0,56,0.00,,,0.02,Wunderground v.1.15,2013-01-30 19:46:00,
2013-01-30 13:54:00,38.1,23.8,29.91,NW,307,11.0,16.0,56,0.00,,,0.02,Wunderground v.1.15,2013-01-30 19:54:00,
2013-01-30 14:00:00,37.9,23.6,29.91,West,280,11.0,11.0,56,0.00,,,0.02,Wunderground v.1.15,2013-01-30 20:00:00,
2013-01-30 14:06:00,38.2,23.9,29.91,North,349,10.0,15.0,56,0.00,,,0.02,Wunderground v.1.15,2013-01-30 20:06:00,
2013-01-30 14:12:00,38.4,24.1,29.92,WNW,297,10.0,14.0,56,0.00,,,0.02,Wunderground v.1.15,2013-01-30 20:12:00,
2013-01-30 14:18:00,38.4,24.1,29.92,NNE,17,9.0,19.0,56,0.00,,,0.02,Wunderground v.1.15,2013-01-30 20:18:00,
2013-01-30 14:24:00,38.2,23.9,29.92,NW,315,9.0,14.0,56,0.00,,,0.02,Wunderground v.1.15,2013-01-30 20:24:00,
2013-01-30 14:30:00,38.5,24.1,29.92,NNW,330,9.0,10.0,56,0.00,,,0.02,Wunderground v.1.15,2013-01-30 20:30:00,
2013-01-30 14:36:00,38.3,23.5,29.92,NNW,330,8.0,10.0,55,0.00,,,0.02,Wunderground v.1.15,2013-01-30 20:36:00,
2013-01-30 14:42:00,38.1,24.2,29.93,North,349,9.0,9.0,57,0.00,,,0.02,Wunderground v.1.15,2013-01-30 20:42:00,
2013-01-30 14:48:00,38.6,24.7,29.93,WNW,295,7.0,9.0,57,0.00,,,0.02,Wunderground v.1.15,2013-01-30 20:48:00,
2013-01-30 14:54:00,39.0,24.2,29.93,NNW,329,7.0,12.0,55,0.00,,,0.02,Wunderground v.1.15,2013-01-30 20:54:00,
2013-01-30 15:00:00,39.4,24.6,29.94,WNW,286,8.0,11.0,55,0.00,,,0.02,Wunderground v.1.15,2013-01-30 21:00:00,
2013-01-30 15:06:00,38.8,24.0,29.93,WNW,286,7.0,11.0,55,0.00,,,0.02,Wunderground v.1.15,2013-01-30 21:06:00,
2013-01-30 15:12:00,38.0,23.3,29.94,NW,313,7.0,12.0,55,0.00,,,0.02,Wunderground v.1.15,2013-01-30 21:12:00,
2013-01-30 15:18:00,37.5,23.6,29.94,West,279,8.0,12.0,57,0.00,,,0.02,Wunderground v.1.15,2013-01-30 21:18:00,
2013-01-30 15:24:00,37.9,24.0,29.94,NW,315,6.0,8.0,57,0.00,,,0.02,Wunderground v.1.15,2013-01-30 21:24:00,
2013-01-30 15:30:00,38.0,23.7,29.95,NW,308,7.0,7.0,56,0.00,,,0.02,Wunderground v.1.15,2013-01-30 21:30:00,
2013-01-30 15:36:00,37.6,23.7,29.94,North,350,8.0,10.0,57,0.00,,,0.02,Wunderground v.1.15,2013-01-30 21:36:00,
2013-01-30 15:42:00,37.9,24.0,29.95,WNW,295,6.0,17.0,57,0.00,,,0.02,Wunderground v.1.15,2013-01-30 21:42:00,
2013-01-30 15:48:00,38.1,24.2,29.95,NNW,337,6.0,17.0,57,0.00,,,0.02,Wunderground v.1.15,2013-01-30 21:48:00,
2013-01-30 15:54:00,38.1,23.8,29.95,NW,307,6.0,10.0,56,0.00,,,0.02,Wunderground v.1.15,2013-01-30 21:54:00,
2013-01-30 16:00:00,37.4,23.5,29.95,NNW,333,8.0,8.0,57,0.00,,,0.02,Wunderground v.1.15,2013-01-30 22:00:00,
2013-01-30 16:06:00,37.3,23.9,29.95,WNW,291,8.0,10.0,58,0.00,,,0.02,Wunderground v.1.15,2013-01-30 22:06:00,
2013-01-30 16:12:00,37.7,23.8,29.96,West,273,6.0,10.0,57,0.00,,,0.02,Wunderground v.1.15,2013-01-30 22:12:00,
2013-01-30 16:18:00,37.8,23.9,29.96,NW,309,7.0,15.0,57,0.00,,,0.02,Wunderground v.1.15,2013-01-30 22:18:00,
2013-01-30 16:24:00,37.9,24.0,29.96,WNW,290,6.0,11.0,57,0.00,,,0.02,Wunderground v.1.15,2013-01-30 22:24:00,
2013-01-30 16:30:00,38.0,23.7,29.96,NNW,327,6.0,8.0,56,0.00,,,0.02,Wunderground v.1.15,2013-01-30 22:30:00,
2013-01-30 16:36:00,38.0,23.7,29.96,NW,306,7.0,8.0,56,0.00,,,0.02,Wunderground v.1.15,2013-01-30 22:36:00,
2013-01-30 16:42:00,37.7,23.8,29.96,NW,316,7.0,16.0,57,0.00,,,0.02,Wunderground v.1.15,2013-01-30 22:42:00,
2013-01-30 16:49:00,37.9,24.0,29.96,NNW,340,6.0,16.0,57,0.00,,,0.02,Wunderground v.1.15,2013-01-30 22:49:00,
2013-01-30 16:54:00,37.9,24.0,29.96,NW,317,6.0,6.0,57,0.00,,,0.02,Wunderground v.1.15,2013-01-30 22:54:00,
2013-01-30 17:00:00,37.9,23.6,29.96,NW,319,5.0,5.0,56,0.00,,,0.02,Wunderground v.1.15,2013-01-30 23:00:00,
2013-01-30 17:06:00,37.7,23.4,29.96,NW,313,5.0,5.0,56,0.00,,,0.02,Wunderground v.1.15,2013-01-30 23:06:00,
2013-01-30 17:12:00,37.7,23.8,29.96,NW,316,4.0,6.0,57,0.00,,,0.02,Wunderground v.1.15,2013-01-30 23:12:00,
2013-01-30 17:18:00,37.6,23.7,29.96,NNW,340,4.0,6.0,57,0.00,,,0.02,Wunderground v.1.15,2013-01-30 23:18:00,
2013-01-30 17:24:00,37.5,23.6,29.97,NNW,342,3.0,6.0,57,0.00,,,0.02,Wunderground v.1.15,2013-01-30 23:24:00,
2013-01-30 17:30:00,37.4,23.5,29.97,NNW,333,4.0,4.0,57,0.00,,,0.02,Wunderground v.1.15,2013-01-30 23:30:00,
2013-01-30 17:36:00,37.2,23.8,29.97,NW,325,4.0,6.0,58,0.00,,,0.02,Wunderground v.1.15,2013-01-30 23:36:00,
2013-01-30 17:42:00,37.1,23.7,29.97,NW,304,3.0,3.0,58,0.00,,,0.02,Wunderground v.1.15,2013-01-30 23:42:00,
2013-01-30 17:49:00,37.0,23.6,29.97,NW,317,2.0,3.0,58,0.00,,,0.02,Wunderground v.1.15,2013-01-30 23:49:00,
2013-01-30 17:54:00,36.9,23.9,29.97,NW,311,3.0,7.0,59,0.00,,,0.02,Wunderground v.1.15,2013-01-30 23:54:00,
2013-01-30 18:00:00,36.8,23.8,29.98,NW,317,2.0,2.0,59,0.00,,,0.02,Wunderground v.1.15,2013-01-31 00:00:00,
2013-01-30 18:06:00,36.7,23.7,29.98,NNW,327,1.0,5.0,59,0.00,,,0.02,Wunderground v.1.15,2013-01-31 00:06:00,
2013-01-30 18:12:00,36.5,23.9,29.98,NNW,340,2.0,4.0,60,0.00,,,0.02,Wunderground v.1.15,2013-01-31 00:12:00,
2013-01-30 18:18:00,36.4,23.8,29.98,NNW,341,1.0,4.0,60,0.00,,,0.02,Wunderground v.1.15,2013-01-31 00:18:00,
2013-01-30 18:24:00,36.1,23.9,29.98,NNW,341,1.0,3.0,61,0.00,,,0.02,Wunderground v.1.15,2013-01-31 00:24:00,
2013-01-30 18:30:00,35.9,23.7,29.98,NNW,338,1.0,1.0,61,0.00,,,0.02,Wunderground v.1.15,2013-01-31 00:30:00,
2013-01-30 18:36:00,35.8,23.7,29.98,NNW,338,1.0,2.0,61,0.00,,,0.02,Wunderground v.1.15,2013-01-31 00:36:00,
2013-01-30 18:42:00,35.6,23.9,29.98,NNW,339,1.0,1.0,62,0.00,,,0.02,Wunderground v.1.15,2013-01-31 00:42:00,
2013-01-30 18:48:00,35.5,23.8,29.99,NNW,338,1.0,3.0,62,0.00,,,0.02,Wunderground v.1.15,2013-01-31 00:48:00,
2013-01-30 18:54:00,35.5,23.8,29.99,NNW,338,1.0,3.0,62,0.00,,,0.02,Wunderground v.1.15,2013-01-31 00:54:00,
2013-01-30 19:00:00,35.5,23.8,29.99,NNW,338,2.0,2.0,62,0.00,,,0.02,Wunderground v.1.15,2013-01-31 01:00:00,
2013-01-30 19:06:00,35.4,23.7,30.00,NNW,337,1.0,2.0,62,0.00,,,0.02,Wunderground v.1.15,2013-01-31 01:06:00,
2013-01-30 19:12:00,35.3,23.6,30.00,NW,315,1.0,4.0,62,0.00,,,0.02,Wunderground v.1.15,2013-01-31 01:12:00,
2013-01-30 19:18:00,35.3,24.0,30.00,NW,319,1.0,4.0,63,0.00,,,0.02,Wunderground v.1.15,2013-01-31 01:18:00,
2013-01-30 19:24:00,35.2,23.9,30.00,NNW,333,1.0,5.0,63,0.00,,,0.02,Wunderground v.1.15,2013-01-31 01:24:00,
2013-01-30 19:30:00,35.1,23.8,30.00,NNW,333,1.0,1.0,63,0.00,,,0.02,Wunderground v.1.15,2013-01-31 01:30:00,
2013-01-30 19:36:00,34.9,23.9,30.00,NNW,333,1.0,1.0,64,0.00,,,0.02,Wunderground v.1.15,2013-01-31 01:36:00,
2013-01-30 19:42:00,34.7,23.8,30.00,NNW,333,0.0,3.0,64,0.00,,,0.02,Wunderground v.1.15,2013-01-31 01:42:00,
2013-01-30 19:50:00,34.5,23.6,30.01,NNW,329,1.0,4.0,64,0.00,,,0.02,Wunderground v.1.15,2013-01-31 01:50:00,
2013-01-30 19:56:00,34.6,23.7,30.01,NNW,327,1.0,4.0,64,0.00,,,0.02,Wunderground v.1.15,2013-01-31 01:56:00,
2013-01-30 20:02:00,34.7,23.4,30.02,NNW,327,1.0,1.0,63,0.00,,,0.02,Wunderground v.1.15,2013-01-31 02:02:00,
2013-01-30 20:08:00,34.5,23.6,30.02,NNW,327,0.0,1.0,64,0.00,,,0.02,Wunderground v.1.15,2013-01-31 02:08:00,
2013-01-30 20:14:00,34.4,23.5,30.02,NNW,327,0.0,0.0,64,0.00,,,0.02,Wunderground v.1.15,2013-01-31 02:14:00,
2013-01-30 20:20:00,34.4,23.8,30.02,NNW,327,0.0,0.0,65,0.00,,,0.02,Wunderground v.1.15,2013-01-31 02:20:00,
2013-01-30 20:26:00,34.2,23.7,30.02,NNW,327,0.0,1.0,65,0.00,,,0.02,Wunderground v.1.15,2013-01-31 02:26:00,
2013-01-30 20:32:00,34.2,23.7,30.02,NNW,327,0.0,1.0,65,0.00,,,0.02,Wunderground v.1.15,2013-01-31 02:32:00,
2013-01-30 20:38:00,34.1,23.2,30.02,NNW,327,0.0,1.0,64,0.00,,,0.02,Wunderground v.1.15,2013-01-31 02:38:00,
2013-01-30 20:44:00,34.0,23.5,30.02,NNW,327,0.0,2.0,65,0.00,,,0.02,Wunderground v.1.15,2013-01-31 02:44:00,
2013-01-30 20:50:00,34.0,23.5,30.03,NNW,327,0.0,0.0,65,0.00,,,0.02,Wunderground v.1.15,2013-01-31 02:50:00,
2013-01-30 20:56:00,34.0,23.5,30.03,NNW,327,1.0,1.0,65,0.00,,,0.02,Wunderground v.1.15,2013-01-31 02:56:00,
2013-01-30 21:02:00,34.0,23.5,30.03,NNW,327,1.0,1.0,65,0.00,,,0.02,Wunderground v.1.15,2013-01-31 03:02:00,
2013-01-30 21:08:00,33.9,23.4,30.03,NNW,327,1.0,3.0,65,0.00,,,0.02,Wunderground v.1.15,2013-01-31 03:08:00,
2013-01-30 21:14:00,33.8,23.3,30.03,NNW,327,1.0,3.0,65,0.00,,,0.02,Wunderground v.1.15,2013-01-31 03:14:00,
2013-01-30 21:20:00,33.7,23.2,30.03,NNW,327,1.0,2.0,65,0.00,,,0.02,Wunderground v.1.15,2013-01-31 03:20:00,
2013-01-30 21:26:00,33.6,23.4,30.03,NNW,327,1.0,2.0,66,0.00,,,0.02,Wunderground v.1.15,2013-01-31 03:26:00,
2013-01-30 21:32:00,33.4,23.3,30.03,NNW,327,0.0,0.0,66,0.00,,,0.02,Wunderground v.1.15,2013-01-31 03:32:00,
2013-01-30 21:39:00,33.1,23.0,30.04,NNW,327,0.0,0.0,66,0.00,,,0.02,Wunderground v.1.15,2013-01-31 03:39:00,
2013-01-30 21:44:00,32.9,23.1,30.04,NNW,327,0.0,0.0,67,0.00,,,0.02,Wunderground v.1.15,2013-01-31 03:44:00,
2013-01-30 21:50:00,32.7,22.9,30.04,NNW,327,0.0,0.0,67,0.00,,,0.02,Wunderground v.1.15,2013-01-31 03:50:00,
2013-01-30 21:56:00,32.6,22.8,30.04,NNW,327,0.0,0.0,67,0.00,,,0.02,Wunderground v.1.15,2013-01-31 03:56:00,
2013-01-30 22:02:00,32.5,22.8,30.04,NNW,327,0.0,0.0,67,0.00,,,0.02,Wunderground v.1.15,2013-01-31 04:02:00,
2013-01-30 22:09:00,32.3,22.6,30.04,NNW,327,0.0,0.0,67,0.00,,,0.02,Wunderground v.1.15,2013-01-31 04:09:00,
2013-01-30 22:14:00,32.2,23.2,30.03,NNW,327,0.0,0.0,69,0.00,,,0.02,Wunderground v.1.15,2013-01-31 04:14:00,
2013-01-30 22:20:00,32.1,23.1,30.03,NNW,327,0.0,0.0,69,0.00,,,0.02,Wunderground v.1.15,2013-01-31 04:20:00,
2013-01-30 22:26:00,32.3,23.6,30.02,NNW,327,0.0,0.0,70,0.00,,,0.02,Wunderground v.1.15,2013-01-31 04:26:00,
2013-01-30 22:32:00,32.1,23.4,30.03,NNW,327,0.0,0.0,70,0.00,,,0.02,Wunderground v.1.15,2013-01-31 04:32:00,
2013-01-30 22:38:00,31.8,23.5,30.03,NNW,327,0.0,0.0,71,0.00,,,0.02,Wunderground v.1.15,2013-01-31 04:38:00,
2013-01-30 22:44:00,31.5,23.5,30.03,NNW,327,0.0,0.0,72,0.00,,,0.02,Wunderground v.1.15,2013-01-31 04:44:00,
2013-01-30 22:50:00,31.3,23.6,30.03,NNW,327,0.0,0.0,73,0.00,,,0.02,Wunderground v.1.15,2013-01-31 04:50:00,
2013-01-30 22:56:00,31.1,23.8,30.03,NNW,327,0.0,0.0,74,0.00,,,0.02,Wunderground v.1.15,2013-01-31 04:56:00,
2013-01-30 23:00:00,30.9,23.6,30.03,NNW,327,0.0,0.0,74,0.00,,,0.02,Wunderground v.1.15,2013-01-31 05:00:00,
2013-01-30 23:02:00,30.9,23.6,30.03,NNW,327,0.0,0.0,74,0.00,,,0.02,Wunderground v.1.15,2013-01-31 05:02:00,
2013-01-30 23:10:00,30.5,23.5,30.04,NNW,327,0.0,0.0,75,0.00,,,0.02,Wunderground v.1.15,2013-01-31 05:10:00,
2013-01-30 23:12:00,30.4,23.4,30.04,NNW,327,0.0,0.0,75,0.00,,,0.02,Wunderground v.1.15,2013-01-31 05:12:00,
2013-01-30 23:14:00,30.3,23.3,30.04,NNW,327,0.0,0.0,75,0.00,,,0.02,Wunderground v.1.15,2013-01-31 05:14:00,
2013-01-30 23:20:00,30.3,23.6,30.04,NNW,327,0.0,0.0,76,0.00,,,0.02,Wunderground v.1.15,2013-01-31 05:20:00,
2013-01-30 23:26:00,30.6,24.2,30.04,NNW,327,0.0,0.0,77,0.00,,,0.02,Wunderground v.1.15,2013-01-31 05:26:00,
2013-01-30 23:32:00,30.5,24.1,30.04,NNW,327,0.0,0.0,77,0.00,,,0.02,Wunderground v.1.15,2013-01-31 05:32:00,
2013-01-30 23:39:00,30.3,24.3,30.05,NNW,327,0.0,0.0,78,0.00,,,0.02,Wunderground v.1.15,2013-01-31 05:39:00,
2013-01-30 23:44:00,30.2,24.5,30.05,NNW,327,0.0,0.0,79,0.00,,,0.02,Wunderground v.1.15,2013-01-31 05:44:00,
2013-01-30 23:50:00,30.2,24.5,30.04,NNW,327,0.0,0.0,79,0.00,,,0.02,Wunderground v.1.15,2013-01-31 05:50:00,
2013-01-30 23:56:00,30.1,24.7,30.04,NNW,327,0.0,0.0,80,0.00,,,0.02,Wunderground v.1.15,2013-01-31 05:56:00,